Regional Weather Roundup
Issued by NWS

Home | Current Version | Previous Version | Graphics & Text | Print | Product List | Glossary On
Versions: 1 2 3 4 5 6 7 8 9 10 11 12 13 14 15 16 17 18 19 20 21 22 23 24 25 26 27 28 29 30 31 32 33 34 35 36 37 38 39 40 41 42 43 44 45 46 47 48 49 50
000
ASUS45 KBOU 180607
RWRCO

WEATHER ROUNDUP FOR COLORADO
NATIONAL WEATHER SERVICE DENVER/BOULDER CO
1200 AM MDT FRI AUG 18 2017

NOTE: "FAIR" INDICATES FEW OR NO CLOUDS BELOW 12000 FEET WITH NO
SIGNIFICANT WEATHER AND/OR OBSTRUCTIONS TO VISIBILITY.

COZ001>005-013-030-031-180700-
...NORTHWEST COLORADO...

CITY           SKY/WX    TMP DP  RH WIND       PRES   REMARKS
CRAIG          FAIR      58  39  49 SE7       30.25R
HAYDEN         MOCLDY    63  44  50 E5        30.29R
MEEKER         MOCLDY    62  42  47 NE6       30.28R
RABBIT EARS PA FAIR      50  32  50 W8        30.55S
STEAMBOAT SPGS MOCLDY    61  40  45 NW3       30.31R
WALDEN         FAIR      50  37  62 SE8       30.38F
$$

COZ006>008-011-180700-
...WEST CENTRAL VALLEYS...

CITY           SKY/WX    TMP DP  RH WIND       PRES   REMARKS
GRAND JUNCTION FAIR      70  35  27 SE12      30.13R
MONTROSE       FAIR      65  38  36 SE12      30.23S
EAGLE          FAIR      57  36  45 E3        30.32R
RIFLE          FAIR      65  38  36 E8        30.21R
DELTA          FAIR      67  38  33 NE9       30.19S
NUCLA          FAIR      63  32  31 SE12      30.26F
$$

COZ017>023-064>068-180700-
...SOUTHWEST COLORADO...

CITY           SKY/WX    TMP DP  RH WIND       PRES   REMARKS
DURANGO        FAIR      57  36  45 N6        30.29S
CORTEZ         FAIR      57  36  45 NE5       30.23S
PAGOSA SPRINGS FAIR      55  33  43 CALM      30.38S
TELLURIDE      FAIR      53  32  45 SE6       30.50S
WOLF CREEK PAS FAIR      46  28  49 W3        30.72S
$$

COZ009-010-012-014-032>034-037-058>063-180700-
...CENTRAL COLORADO...

CITY           SKY/WX    TMP DP  RH WIND       PRES   REMARKS
ASPEN          FAIR      50  38  63 SW9       30.38S
BUENA VISTA    FAIR      51  36  57 SE5       30.40R
COPPER MTN     FAIR      50  28  43 W15       30.65F
BERTHOUD PASS  FAIR      41  36  81 NW29G41   30.64R
COTTONWOOD PAS FAIR      55  30  38 W8        30.51S
GUNNISON       FAIR      50  37  61 CALM      30.40R
KREMMLING      FAIR      54  41  62 SE3       30.36R
LEADVILLE      FAIR      40  32  73 NE6       30.50S
MONARCH PASS   FAIR      46  28  49 W10       30.77S
SALIDA         FAIR      56  36  47 W7        30.44S
SUNLIGHT       FAIR      50  28  43 W6        30.61S
WILKERSON PASS FAIR      48  30  49 W7        30.64R
$$

COZ069>075-180700-
...SAN LUIS VALLEY/SANGRE DE CRISTO MOUNTAINS...

CITY           SKY/WX    TMP DP  RH WIND       PRES   REMARKS
ALAMOSA        FAIR      50  40  68 CALM      30.36R
DEL NORTE      FAIR      56  37  48 W12       30.40S
LA VETA PASS   NOT AVBL
SAGUACHE       FAIR      52  36  54 NW8       30.39S
$$

COZ035-036-038>040-180700-
...NORTHERN COLORADO FRONT RANGE...

CITY           SKY/WX    TMP DP  RH WIND       PRES   REMARKS
DENVER INTL AP FAIR      66  43  43 SW15      30.14R
DMNS CITY PARK   N/A     62  46  56 E9        30.14S
AURORA         PTCLDY    62  43  50 S8        30.17S
FRONT RANGE AP FAIR      68  43  40 SW14G20   30.16R
ERIE MUNI ARPT FAIR      61  42  49 SW5       30.18R
BOULDER MUN AP FAIR      70  36  28 CALM      30.14R
CENTENNIAL     FAIR      62  41  46 E5        30.19R
BROOMFIELD     NOT AVBL
FORT COLLINS   FAIR      65  51  60 N8        30.13R
LONGMONT       FAIR      63  45  51 N6        30.15R
$$

COZ041-046-047-076>085-087-088-180700-
...PIKES PEAK/PALMER DIVIDE AND SOUTHERN FOOTHILLS...

CITY           SKY/WX    TMP DP  RH WIND       PRES   REMARKS
COLO. SPRINGS  FAIR      61  46  57 NE5       30.25S
A. F. ACADEMY  FAIR      54  43  66 N9        30.25F
SCHRIEVER AFB  FAIR      61  45  54 SW6       30.25S
CHEYENNE MTN   FAIR      64  35  34 NW6       30.24S
ELLICOTT       FAIR     N/A N/A N/A NE3       30.23S
FALCON         FAIR      57  42  57 W7        30.30S
FORT CARSON    FAIR      61  46  57 NW6       30.21S
LIMON          FAIR      50  49  96 N5        30.17S
MONUMENT HILL  FAIR      55  39  54 SW10      30.30S
CANON CITY     CLEAR     63  46  55 W8        30.20S
WALSENBURG     FAIR      63  45  51 W9        30.25S
TRINIDAD       FAIR      60  46  59 SW8       30.24F
$$

COZ042>045-048>051-090-091-180700-
...NORTHEAST COLORADO...

CITY           SKY/WX    TMP DP  RH WIND       PRES   REMARKS
GREELEY ARPT   FAIR      61  52  72 NW12      30.12R
AKRON          FAIR      63  46  54 W3        30.09R
BURLINGTON     FAIR      60  52  74 S10       30.09R
WRAY           NOT AVBL
YUMA           FAIR      55  52  88 W8        30.05R
STERLING       FAIR      61  52  72 NW3       30.07R
HOLYOKE        FAIR      59  55  88 W3        30.04R
FORT MORGAN    FAIR      65  41  40 N9        30.11R
$$

COZ086-089-092>099-180700-
...SOUTHEAST COLORADO...

CITY           SKY/WX    TMP DP  RH WIND       PRES   REMARKS
PUEBLO         FAIR      63  48  58 NW3       30.14S
LA JUNTA       FAIR      69  51  52 W13       30.09F
LAMAR          FAIR      72  55  55 S13       30.03F
SPRINGFIELD      N/A     64  62  93 NW8       30.15R
$$



USA.gov is the U.S. government's official web portal to all federal, state and local government web resources and services.